Theta_e
312 304 299 295 294 292 290 289 288 288 288 287 287 287 286 285 285 285 284 282 281 280 280 279 278 278 277 277 278 277 276 276 274 274 275 275 274 274 274 273 274 273 273
299 295 292 291 289 287 286 286 286 285 285 285 286 286 285 285 284 283 281 281 279 279 278 277 277 277 276 276 276 275 275 275 274 272 274 274 273 273 272 271 273 274 273
292 289 287 286 286 285 285 285 286 286 285 285 285 285 284 283 282 281 280 280 279 278 278 277 276 276 275 275 275 274 275 276 275 274 273 273 273 272 271 271 271 271 272
289 287 286 286 286 286 286 285 285 285 285 285 285 283 282 281 281 280 279 278 278 278 278 277 277 276 276 275 276 275 275 275 275 273 272 272 271 272 270 268 268 270 269
286 286 285 285 286 285 285 285 285 284 283 283 281 281 280 280 280 279 278 278 277 276 277 277 277 278 279 279 277 276 275 274 273 272 270 270 269 269 268 269 268 267 268
285 285 285 285 285 284 284 283 282 281 281 280 279 279 279 280 283 282 279 277 277 276 276 277 277 277 279 280 280 280 278 274 272 271 270 268 268 269 268 267 266 265 261
284 284 284 284 283 282 282 281 280 279 279 279 279 280 280 280 283 282 280 278 277 276 276 276 276 276 276 276 278 277 276 276 275 272 269 269 268 268 269 267 265 264 263
282 281 281 281 280 280 279 279 279 279 279 279 279 280 280 281 283 282 280 277 277 276 276 276 275 275 276 275 274 273 273 272 272 272 272 270 270 271 269 267 265 260 259
280 280 280 280 279 279 278 278 279 279 279 279 279 279 279 280 282 281 279 277 276 275 276 275 275 275 278 278 274 272 271 271 273 274 273 274 273 272 270 265 256 253 255
279 279 280 280 279 278 279 279 279 279 279 279 278 279 279 279 282 281 278 277 275 275 275 276 277 276 277 277 273 270 268 269 268 266 266 265 266 265 268 263 261 250 250
279 279 278 279 278 278 278 278 278 277 277 276 276 277 277 277 279 281 280 277 276 275 274 273 273 276 276 276 274 269 269 268 266 262 261 261 261 262 262 262 262 260 251
278 277 277 277 278 277 277 276 276 276 275 274 275 274 275 277 280 281 280 278 277 274 272 272 271 275 274 273 271 272 272 265 258 256 257 258 259 259 260 259 260 260 260
277 276 276 276 276 276 275 275 274 274 273 273 273 272 272 273 275 280 278 277 276 272 272 273 272 272 270 267 269 269 263 257 256 252 255 257 258 259 259 254 255 257 257
274 274 275 275 274 275 275 275 273 272 272 272 272 271 270 270 270 271 271 270 273 270 269 265 268 268 267 266 262 262 261 258 257 255 254 256 256 251 254 256 256 256 254
274 274 274 274 273 273 273 272 272 272 273 271 268 270 268 267 270 273 270 268 264 268 257 256 256 257 257 257 256 256 255 255 254 253 254 255 255 255 255 256 255 254 251
273 272 272 272 272 273 273 273 278 278 278 277 276 272 270 274 277 276 275 273 273 271 254 252 254 255 255 256 255 255 254 253 253 252 253 254 254 254 254 254 254 252 251
271 271 272 272 271 272 271 272 272 276 279 278 278 277 277 276 275 274 273 271 270 263 251 250 253 254 255 255 254 253 252 255 253 254 253 253 254 253 252 252 252 252 251
268 270 270 270 270 269 268 266 269 271 271 266 274 274 275 275 273 272 272 264 254 253 248 251 253 254 255 253 254 253 255 255 254 254 254 253 252 251 250 250 250 249 250
269 271 270 268 265 266 266 266 265 265 264 261 258 264 260 271 272 269 266 252 252 250 251 254 255 254 253 253 253 253 254 254 254 253 252 252 251 247 248 249 250 250 251
273 272 269 266 263 261 262 262 261 261 259 259 255 255 252 254 254 252 249 248 248 253 256 255 257 255 254 254 254 253 253 253 253 252 251 251 250 247 249 249 251 251 251
270 261 263 260 262 262 262 262 259 258 258 256 256 254 263 256 256 255 254 253 254 256 256 256 256 256 255 254 253 253 253 253 253 253 251 251 249 248 250 252 252 252 252
270 265 259 260 257 258 258 258 258 258 258 258 257 255 269 254 253 253 254 256 256 255 254 254 255 255 255 255 254 254 253 253 253 252 251 250 249 250 251 252 252 252 252
271 267 258 255 256 257 256 255 258 258 258 256 253 252 251 251 252 253 254 255 255 256 257 254 254 255 256 255 255 254 253 254 254 253 252 252 252 252 252 252 252 252 253
265 260 260 256 256 257 257 257 255 255 254 253 251 250 251 252 254 254 254 255 256 257 258 257 257 257 256 256 256 256 255 255 254 253 251 252 252 252 253 253 253 253 253
258 258 258 258 258 258 256 255 255 253 252 252 251 250 252 253 253 255 255 254 256 256 258 258 258 258 257 257 257 257 257 258 256 256 255 255 254 253 253 253 254 254 254
256 257 257 255 256 256 256 256 255 254 253 253 253 253 253 251 253 253 253 252 256 258 258 259 259 259 258 258 258 259 259 261 260 260 259 257 255 254 253 253 253 254 254
Wind_Speed
9 12 14 13 14 13 13 13 13 12 16 15 17 16 16 16 13 13 12 12 13 11 8 9 9 7 5 4 4 4 5 4 3 2 1 1 1 2 4 3 5 5 6
12 15 15 16 16 15 16 17 15 15 12 13 13 17 16 15 14 14 13 10 12 12 10 10 9 7 7 6 5 6 5 5 3 1 2 3 2 2 3 4 5 7 8
13 18 16 16 18 18 16 18 17 17 15 15 15 15 14 13 13 10 11 12 11 10 9 10 8 8 7 6 5 4 4 4 3 2 2 3 1 2 3 4 5 5 6
11 17 17 17 18 19 19 18 19 17 15 16 14 15 13 13 11 12 12 12 11 9 9 8 8 8 7 5 5 5 4 3 2 3 2 2 1 3 2 5 7 6 8
16 18 17 18 17 19 19 18 18 16 16 14 15 14 12 11 9 12 12 11 11 10 9 9 7 7 10 8 4 3 4 3 2 2 2 2 3 5 6 6 9 9 8
16 18 19 19 19 19 17 19 16 17 17 14 14 11 13 9 21 20 14 10 9 10 9 7 6 7 7 9 9 9 5 3 4 2 2 4 6 4 5 7 8 9 6
16 18 18 19 19 20 18 19 17 17 17 14 14 13 13 13 21 20 17 9 8 7 8 7 6 4 5 5 7 7 7 6 7 4 4 4 5 5 7 8 9 8 8
17 16 17 21 19 18 20 17 17 14 14 14 13 13 13 12 20 18 17 9 8 7 6 6 6 4 4 4 3 3 1 2 3 3 1 2 5 7 7 7 7 5 5
17 16 17 18 18 17 19 17 14 14 13 12 12 12 12 11 18 17 12 8 8 7 6 6 5 4 4 2 4 2 2 3 5 5 7 12 17 18 15 4 4 4 6
17 16 17 18 17 16 16 15 13 12 12 11 12 10 9 10 15 14 10 5 6 6 5 5 7 3 3 5 5 4 3 3 2 2 4 8 9 9 14 3 2 1 2
17 18 17 16 16 15 13 12 12 12 12 12 12 9 9 7 8 12 11 4 4 4 4 3 3 4 6 9 7 0 3 6 3 2 3 4 5 5 4 4 4 4 3
15 16 15 14 10 9 13 11 11 11 12 11 11 8 6 5 10 11 11 8 7 4 5 3 2 7 7 7 6 9 8 4 0 1 2 5 5 4 4 4 6 7 8
14 14 13 12 10 9 11 11 9 9 8 7 6 6 5 5 5 12 10 11 9 6 3 5 6 5 7 6 8 8 4 1 2 2 3 5 3 4 5 2 5 7 10
13 11 9 10 9 8 6 6 7 7 7 6 6 6 4 4 3 4 5 5 7 5 5 3 4 3 7 6 3 4 3 3 3 3 3 4 3 2 4 3 6 7 8
10 8 8 6 7 7 6 5 5 4 5 6 3 5 5 3 2 5 4 2 2 3 3 3 3 3 3 3 3 4 3 3 2 3 3 6 5 5 5 4 5 6 6
8 5 5 5 5 5 6 6 11 10 10 10 11 7 1 8 9 7 5 4 4 5 4 3 2 1 4 3 4 4 3 4 3 2 3 4 5 6 7 6 6 6 8
7 5 5 6 5 5 4 6 8 9 15 14 11 9 7 7 7 5 5 3 5 6 3 1 3 4 4 4 4 4 3 4 2 3 4 5 5 6 7 7 7 7 8
6 6 4 4 5 5 5 4 4 7 7 2 6 6 6 5 5 3 3 6 3 4 2 3 4 4 4 4 4 3 5 5 3 5 5 5 5 6 7 7 7 7 8
5 4 4 3 2 3 4 4 5 5 5 4 1 3 3 3 2 3 4 3 3 3 3 4 4 5 4 4 4 4 5 6 5 6 5 6 6 4 7 7 7 10 11
4 6 4 4 4 3 2 3 2 2 1 1 1 3 0 2 1 1 0 2 2 4 4 5 5 4 4 5 5 5 6 6 6 6 7 7 6 5 7 8 8 8 8
3 2 4 2 3 3 3 4 3 3 2 2 2 3 7 4 4 3 1 3 5 5 4 4 5 5 5 5 5 5 6 7 7 7 7 7 5 6 7 8 8 8 9
4 4 2 4 3 3 2 2 3 3 3 4 4 4 9 2 1 3 5 5 5 5 5 5 5 5 5 6 6 6 7 8 8 7 7 6 6 7 8 8 8 8 9
4 5 4 2 3 4 3 3 4 4 5 5 4 3 1 2 4 5 6 5 5 5 4 4 4 6 6 6 7 7 8 9 9 7 7 7 7 8 8 8 8 10 10
3 4 5 3 3 3 3 3 2 4 5 4 3 3 4 5 6 6 5 5 5 5 4 5 6 9 8 7 7 8 9 10 8 8 8 9 9 10 9 9 10 13 12
4 4 4 5 5 5 5 4 4 4 4 4 5 4 5 5 4 5 4 4 5 5 7 7 7 9 11 13 13 15 15 18 14 12 9 11 13 14 12 10 12 12 13
4 4 3 2 3 3 4 4 5 5 6 5 5 5 3 3 5 5 4 4 5 6 8 7 9 12 14 13 14 16 16 17 15 17 12 10 11 11 10 13 18 12 13
Wind_Direction
204 121 113 110 111 109 107 104 101 106 115 117 119 113 116 115 110 109 111 116 115 114 107 107 102 99 89 76 70 60 54 44 83 72 82 79 113 6 6 355 348 324 325
125 111 109 110 109 111 113 110 110 112 101 106 104 109 111 107 112 119 119 124 117 110 114 108 99 93 80 74 69 65 71 49 78 69 22 31 21 357 337 301 315 322 318
121 113 110 112 113 111 109 112 110 113 111 109 109 107 103 103 104 106 113 110 109 112 108 107 108 103 91 84 84 88 70 67 69 76 352 41 317 312 303 290 300 298 291
109 111 112 118 120 119 123 119 117 117 115 114 110 105 105 105 114 109 109 102 97 94 98 94 93 97 114 114 96 80 77 79 64 50 351 301 295 318 304 312 316 305 306
109 108 112 111 112 115 111 107 110 114 108 103 102 96 104 107 106 107 104 104 106 101 92 99 110 121 114 96 95 92 79 62 53 29 315 304 308 324 325 317 307 313 316
106 109 114 113 113 106 110 112 107 103 96 96 93 105 100 105 113 113 110 109 107 111 112 104 90 76 88 82 65 79 82 57 33 347 312 310 312 324 320 312 314 322 324
97 103 107 105 106 107 107 102 103 96 101 106 98 103 104 106 117 117 117 109 116 116 115 119 103 98 84 70 75 71 49 21 17 10 319 329 324 316 308 312 311 300 290
86 90 99 101 99 102 98 94 93 100 101 99 104 102 103 111 120 118 113 108 106 95 101 100 102 91 104 118 117 89 119 35 2 298 41 322 272 302 323 318 322 303 290
83 85 91 93 95 94 94 97 97 101 97 102 100 105 106 107 118 120 112 106 100 100 101 99 97 85 72 145 144 92 32 325 325 354 334 322 323 324 318 338 323 4 312
77 79 79 83 85 89 93 95 97 96 98 97 89 78 84 110 122 120 106 105 114 112 94 88 108 91 5 33 104 74 330 310 70 351 320 321 317 305 319 317 317 237 262
73 73 74 75 85 85 92 92 98 97 92 87 85 75 75 74 106 110 110 96 110 103 94 72 40 17 14 12 81 75 276 100 326 295 286 287 283 280 269 266 252 247 224
78 78 76 78 83 90 94 94 92 92 92 91 90 78 57 60 97 93 96 97 99 100 84 66 16 19 14 5 18 342 352 4 226 309 281 284 271 268 258 242 253 250 253
86 86 87 88 86 88 99 100 96 94 95 93 103 100 81 51 38 94 86 81 77 82 99 52 40 22 11 16 348 340 19 337 281 261 252 260 240 278 290 279 264 266 258
92 90 91 93 91 87 92 103 111 116 115 126 128 121 106 86 79 69 63 52 64 70 59 36 17 20 12 5 342 323 269 241 234 244 250 270 290 340 294 281 300 303 288
86 90 90 91 97 91 68 94 103 65 124 137 117 127 131 119 113 123 133 138 122 119 84 39 16 13 354 302 268 256 264 250 253 244 288 311 311 311 301 300 281 289 268
92 79 78 87 74 80 97 91 97 103 107 111 127 127 71 151 153 125 105 100 89 122 57 58 341 265 263 268 286 286 253 241 244 240 288 296 307 311 305 298 279 265 279
102 100 93 88 86 96 86 107 111 99 113 117 123 126 125 121 123 131 125 98 77 71 82 206 239 246 257 259 252 239 257 285 254 282 285 285 292 291 293 288 282 281 283
91 89 100 112 122 122 126 132 142 150 144 76 79 95 124 135 161 165 105 72 46 29 149 219 242 252 257 257 275 265 296 297 281 285 278 279 275 270 281 276 277 280 287
125 129 129 118 105 135 140 142 142 140 152 155 129 112 31 141 172 90 82 123 171 221 220 238 246 261 275 272 274 267 270 276 276 285 273 267 268 234 263 265 270 273 277
120 137 134 138 135 119 110 111 92 107 121 142 136 209 310 69 80 305 309 173 203 244 250 257 267 255 262 262 268 264 275 277 273 260 257 257 256 223 257 268 269 279 277
127 115 133 100 163 168 158 169 150 131 164 206 234 229 191 171 204 213 243 233 238 245 257 256 271 269 263 256 256 257 259 268 264 263 255 256 246 248 248 258 268 269 272
148 157 152 172 147 144 164 137 154 171 186 204 224 248 235 110 168 231 239 243 239 234 229 243 265 264 265 266 270 266 269 270 268 259 253 250 248 254 260 263 267 269 270
164 168 170 170 157 144 149 187 189 192 201 211 210 209 184 225 230 236 242 248 241 250 244 223 245 271 261 251 247 249 260 264 263 259 266 270 268 264 262 267 267 270 268
159 163 174 170 161 180 194 197 197 205 207 209 201 212 221 228 233 240 251 257 261 271 266 260 252 258 271 269 261 252 251 258 261 258 240 261 266 268 263 264 262 264 269
157 167 175 180 186 195 195 206 210 207 207 206 214 217 230 237 255 257 261 261 269 273 281 274 266 267 268 271 268 268 267 272 267 264 260 256 256 256 257 259 264 266 268
175 178 184 162 199 196 201 198 210 213 220 220 220 226 232 241 255 261 262 259 267 274 280 279 279 280 281 280 277 277 278 278 277 265 251 242 246 251 248 251 258 259 262